Weather in Tarnobrzeg

Poland     50°34′04″N   21°41′35″E
temp.,
°C
wind,
m/s
gust,
m/s
humid.,
%
clouds,
%
prec.,
mm/h
press.,
hPa
HPBL,
m
28 november, sun
sun2801:00+2ssw2389100 0.0 99976
04:00+2ssw1190100 0.0 99912
07:00+2n2288100 0.0 99921
10:00+4ene2292100 0.0 999105
13:00+5ese2590100 0.0 997250
16:00+5ese3593100 0.0 99592
19:00+6se51285100 0.0 993338
22:00+7se41191100 1.3 991394
29 november, mon
mon2901:00+6wsw6995100 6.9 991540
04:00+2w51094100 0.6 992616
07:00+2wnw61080100 0.6 995876
10:00+2w6977100 0.0 9961036
13:00+2wnw61281100 0.1 9961035
16:00+2w71178100 0.1 998996
19:00+1w71385100 0.1 9991139
22:00+1w81486100 0.1 1000866
30 november, tue
tue3001:00+1w7148698 0.1 1001790
04:00+1w71386100 0.1 10031303
07:00+1wnw7138188 0.2 1005971
10:00+1w7117899 0.1 10071128
13:00+2wsw7127281 0.2 10051295
16:00+2sw71365100 0.0 1002977
19:000sw81797100 1.1 9991062
22:00+1wsw91696100 1.4 9981021
1 december, wed
wed101:00+2w81696100 1.9 9991165
04:00+3wnw8157599 0.1 10011274
07:00+3w7137935 0.2 1002906
10:00+3wsw41095100 0.2 1003970
13:00+5wsw71489100 0.3 1001805
16:00+6sw81586100 0.8 10001091
19:00+6sw81678100 1.1 9991166
22:00+4ssw5118688 0.0 999410
2 december, thu
thu201:00+5sw61479100 0.0 998923
04:00+6sw61376100 0.0 998864
07:00+5sw61475100 0.0 998728
10:00+6wsw51180100 0.0 999971
13:00+6sw4881100 0.1 998982
16:00+5ssw378597 0.1 998227
19:00+5sw3585100 0.4 998475
22:00+4sw2389100 0.2 99885